Wind_Speed
18 18 19 20 20 21 20 20 20 19 19 19 20 20 20 19 19 18 18 18 17 16 15 15 14 13 13 13 12 12 11 11 10 9 8 7 7 6 6 6 6 6 7
19 20 20 21 21 22 22 22 22 21 21 21 21 21 21 21 21 21 20 20 19 18 17 17 16 16 15 15 14 14 14 13 12 11 10 10 9 9 8 8 8 8 8
22 22 22 22 23 23 23 23 23 23 23 23 23 23 23 22 22 23 22 22 22 21 20 19 18 18 18 17 16 16 16 15 14 13 12 12 11 11 10 10 10 10 10
24 24 25 25 25 25 25 25 25 25 25 25 25 25 25 24 24 24 24 24 24 23 22 22 21 20 19 19 18 18 18 17 16 15 14 14 13 13 12 12 12 12 12
27 27 27 27 28 28 28 28 28 28 28 28 28 28 27 27 27 26 26 26 25 25 25 25 24 22 22 21 20 20 19 19 17 17 16 15 15 15 14 14 14 14 13
29 29 30 30 30 30 30 30 31 30 30 30 30 29 30 29 29 29 28 28 28 27 27 26 26 25 24 24 23 22 22 21 20 19 18 18 17 16 16 15 15 15 15
32 32 33 33 33 34 34 34 34 33 33 33 32 32 32 32 31 31 31 30 30 30 29 29 27 27 26 25 25 24 23 23 22 21 20 19 18 18 18 17 17 17 17
34 35 35 36 36 36 36 37 37 36 36 36 36 35 35 35 35 34 34 34 33 33 32 31 30 28 27 27 27 26 25 24 23 22 21 21 20 20 20 19 19 19 19
35 36 36 37 37 38 39 39 39 40 39 39 39 38 38 37 37 37 37 37 36 36 35 35 33 32 30 29 29 29 28 27 25 24 23 23 22 22 22 21 21 20 20
36 37 37 38 38 39 40 40 41 41 41 41 41 41 41 40 40 40 40 40 39 39 38 37 37 35 34 33 31 31 31 30 28 27 26 25 25 24 23 23 23 23 22
36 37 37 38 39 40 40 41 42 43 43 44 44 44 43 43 43 43 42 42 42 41 41 41 40 39 38 36 35 34 34 33 32 30 29 28 27 26 26 25 25 25 24
37 38 39 40 41 41 42 42 43 44 44 45 46 46 46 46 46 45 45 45 45 44 44 44 43 43 41 40 39 37 36 36 35 33 32 31 30 29 28 28 27 27 26
38 39 40 41 42 43 44 45 45 46 46 47 47 47 47 48 48 48 48 48 48 47 47 46 46 45 44 43 42 41 40 39 38 37 35 34 32 32 31 30 29 28 28
39 41 42 43 45 46 46 47 47 48 48 49 49 49 50 51 51 51 51 51 51 50 50 49 49 48 47 46 45 44 43 42 41 40 38 37 35 34 33 32 32 30 30
40 42 43 45 46 47 48 49 50 50 51 51 51 52 52 53 53 53 54 54 54 53 53 52 52 51 51 50 49 47 46 44 43 42 41 40 38 37 35 34 33 33 32
41 43 44 45 46 47 49 50 52 53 53 54 54 54 55 55 55 55 55 56 56 56 55 55 55 54 54 52 51 50 48 46 45 44 44 42 40 39 37 37 36 35 34
41 42 43 45 46 47 49 51 53 54 55 56 57 58 58 58 58 58 58 58 58 58 58 57 57 57 56 55 54 52 50 49 48 47 45 44 42 41 40 39 38 37 36
42 43 44 46 47 48 50 52 54 55 56 57 59 60 60 61 60 60 61 60 60 60 60 60 59 59 58 57 56 55 53 52 51 50 47 46 45 43 42 41 41 40 39
43 45 47 48 49 50 52 53 55 56 58 59 61 62 63 63 63 63 63 63 63 63 62 61 61 61 61 60 59 57 56 55 54 52 50 49 47 46 45 44 43 42 40
44 46 48 49 51 52 53 55 56 57 59 60 62 62 63 65 66 66 65 65 64 64 63 63 63 63 63 62 61 60 59 58 57 54 53 51 49 48 47 46 44 43 42
46 47 49 50 51 53 54 55 56 57 58 59 60 62 63 64 66 66 66 66 65 64 63 63 63 63 63 63 63 63 61 61 59 57 56 54 52 50 49 48 47 45 44
47 48 49 50 51 52 53 54 54 54 56 57 58 59 60 62 63 64 64 64 63 64 63 63 63 64 63 63 64 64 63 61 60 59 58 57 55 53 51 49 48 47 46
47 48 49 50 51 51 52 52 51 52 54 55 56 56 57 59 59 60 62 63 63 63 62 62 63 64 62 62 64 64 63 62 61 60 59 58 57 56 54 51 49 48 48
48 49 50 51 51 51 50 50 51 51 52 53 54 53 55 56 56 57 59 61 61 62 62 62 62 63 63 62 62 62 63 62 62 60 59 59 59 58 56 53 51 50 49
48 49 50 50 50 49 49 50 50 49 50 50 52 52 53 53 54 54 56 59 60 61 60 60 61 61 62 62 62 63 62 62 61 61 60 60 60 59 58 56 54 52 51
48 49 49 48 49 49 49 49 48 48 48 49 50 50 51 51 52 53 54 56 58 59 59 59 60 61 60 61 62 63 62 61 61 60 60 60 60 59 59 58 56 54 51
Wind_Direction
248 249 249 249 249 249 250 250 250 249 248 247 247 248 248 249 250 250 251 251 252 252 252 253 254 253 252 253 253 252 251 251 252 253 255 258 264 271 277 285 294 300 305
250 249 250 250 250 250 250 250 250 250 249 248 247 248 249 249 251 251 251 252 251 252 253 253 255 255 254 254 255 255 255 253 253 255 257 259 263 268 275 281 288 292 297
253 252 252 252 252 252 252 252 252 251 251 250 249 249 249 250 251 252 252 252 251 251 252 253 254 255 255 255 255 256 257 254 253 255 257 260 263 267 271 276 282 288 291
254 254 254 254 253 253 254 254 253 253 253 252 252 251 250 250 251 252 253 253 251 251 251 252 253 254 255 257 257 257 256 255 255 256 257 259 262 265 268 272 277 283 288
256 256 256 256 256 255 255 255 255 255 255 254 254 253 252 252 252 253 254 254 254 253 252 252 253 253 255 257 257 258 258 256 256 257 258 260 262 264 266 269 274 279 284
259 259 259 258 257 257 256 256 256 255 255 255 255 254 253 253 253 253 254 254 255 255 254 254 255 254 254 256 257 257 258 258 257 258 259 260 262 264 266 269 273 277 281
261 260 260 260 259 258 258 257 257 256 256 256 255 255 254 254 254 254 254 255 255 255 256 255 255 256 254 255 256 257 258 259 259 260 261 262 263 264 267 269 273 277 280
262 262 261 261 260 260 259 259 258 257 256 256 256 256 255 255 255 254 254 255 255 255 256 256 255 256 256 254 255 256 257 258 260 260 261 262 262 264 267 269 271 275 278
263 263 262 262 262 262 261 260 259 258 258 257 256 256 256 256 255 256 256 255 256 257 257 256 256 256 255 256 256 256 257 258 259 261 261 262 264 265 266 269 271 274 277
264 264 264 264 263 262 262 261 260 259 258 258 257 257 257 256 256 256 256 256 256 257 258 257 257 256 256 256 257 257 257 258 259 260 261 262 264 266 267 268 271 273 276
266 266 265 265 264 263 262 262 261 260 259 258 257 257 257 257 257 256 257 257 256 257 258 258 258 258 258 257 256 257 257 258 259 260 261 262 263 265 267 268 270 272 275
267 267 267 267 265 264 263 262 261 261 260 259 258 258 258 257 257 257 257 257 257 257 257 258 259 259 259 258 256 256 257 258 259 259 260 261 262 263 265 268 269 271 274
270 270 269 268 267 265 264 263 262 261 260 259 259 259 258 258 257 257 256 257 257 256 257 257 258 259 259 259 258 256 256 257 258 258 258 260 261 263 264 266 268 271 273
273 272 271 271 269 267 266 265 263 262 261 260 260 260 260 259 258 257 257 257 257 256 256 257 258 258 259 258 258 257 256 256 257 257 257 258 259 261 263 265 267 270 272
276 275 274 272 270 268 267 267 265 264 263 262 261 261 261 259 258 258 257 257 257 257 256 256 257 257 258 258 257 257 257 256 256 256 257 258 258 258 261 264 266 268 270
278 278 277 276 274 270 268 268 267 266 264 263 261 262 261 260 260 259 258 257 257 257 256 256 256 256 256 257 257 256 257 256 256 256 256 259 259 258 259 263 265 267 269
281 281 280 278 276 273 272 271 269 267 266 264 263 263 262 260 260 259 258 258 257 257 257 256 256 256 256 255 256 255 255 256 256 257 256 257 259 259 258 261 264 266 268
283 283 283 281 278 276 275 274 272 269 267 266 265 264 263 261 260 259 258 258 257 257 257 257 257 256 256 255 255 254 255 255 256 256 256 256 257 258 258 259 262 264 266
286 285 284 283 281 279 277 276 274 271 269 268 267 266 264 262 261 259 258 258 257 257 257 257 257 257 256 255 254 254 254 254 255 254 255 256 256 257 258 259 260 262 265
288 288 286 285 284 281 278 277 276 274 272 270 269 268 266 264 261 259 258 258 257 256 256 256 257 256 255 255 254 254 253 253 253 254 255 255 255 256 257 258 259 260 263
290 290 289 287 287 284 281 279 277 275 273 273 271 268 266 265 262 259 258 257 257 256 255 255 256 256 255 254 253 253 253 253 253 253 254 254 255 256 256 258 258 259 261
292 291 291 290 290 287 285 283 280 277 276 275 273 271 267 265 263 259 257 256 256 256 255 255 255 255 254 254 253 253 252 253 253 252 253 254 254 254 255 257 258 258 259
295 294 293 292 291 290 288 285 282 281 279 276 273 271 268 266 263 260 257 255 255 256 255 255 255 254 254 253 253 252 252 253 252 251 252 253 253 253 253 256 258 258 259
297 297 295 294 293 291 289 287 285 283 280 276 273 272 269 266 264 262 259 257 256 256 255 254 254 253 253 252 252 252 252 253 252 251 251 252 252 253 253 254 257 258 258
299 298 298 296 294 292 290 290 286 284 282 279 276 273 270 267 265 263 261 259 257 257 255 253 252 252 252 252 251 251 251 252 252 252 251 251 251 252 253 254 255 256 257
300 300 299 298 296 293 292 290 288 285 283 281 279 275 272 268 265 263 262 260 258 257 255 253 252 252 252 251 251 250 251 252 252 252 252 250 251 251 252 253 254 255 257
Height
5843 5844 5844 5845 5846 5847 5848 5849 5850 5851 5853 5854 5854 5855 5856 5856 5857 5858 5858 5859 5860 5860 5861 5861 5861 5862 5862 5862 5862 5862 5863 5863 5863 5863 5863 5863 5863 5863 5863 5863 5863 5862 5862
5839 5840 5841 5842 5843 5844 5845 5846 5847 5848 5849 5850 5851 5852 5853 5854 5854 5855 5856 5857 5857 5858 5858 5859 5860 5860 5860 5860 5860 5861 5861 5861 5861 5862 5862 5862 5862 5862 5862 5862 5862 5861 5861
5836 5837 5838 5839 5839 5840 5841 5842 5844 5845 5846 5847 5848 5849 5849 5850 5851 5852 5853 5854 5854 5855 5856 5856 5857 5857 5858 5858 5858 5858 5859 5859 5859 5860 5860 5860 5860 5860 5860 5860 5860 5860 5859
5832 5833 5833 5834 5835 5836 5837 5838 5839 5840 5842 5843 5844 5845 5846 5846 5847 5848 5849 5850 5851 5852 5852 5853 5854 5854 5855 5855 5856 5856 5856 5857 5857 5857 5858 5858 5858 5858 5858 5858 5858 5858 5857
5827 5828 5829 5830 5831 5832 5833 5834 5835 5836 5837 5838 5839 5840 5841 5842 5843 5844 5845 5846 5847 5848 5849 5850 5850 5851 5852 5852 5853 5853 5853 5854 5854 5855 5855 5856 5856 5856 5856 5856 5856 5855 5855
5822 5823 5824 5825 5826 5826 5827 5828 5830 5831 5832 5833 5834 5835 5837 5838 5839 5840 5841 5842 5843 5844 5845 5845 5846 5847 5848 5849 5849 5850 5850 5851 5851 5852 5852 5853 5853 5853 5853 5853 5853 5853 5852
5816 5817 5818 5819 5820 5821 5822 5823 5824 5825 5826 5827 5828 5830 5831 5832 5833 5834 5836 5837 5838 5839 5840 5841 5842 5843 5843 5844 5845 5846 5847 5847 5848 5849 5849 5850 5850 5850 5850 5850 5850 5850 5849
5810 5811 5811 5812 5813 5814 5815 5816 5817 5818 5820 5821 5822 5823 5825 5826 5827 5829 5830 5831 5832 5833 5834 5836 5837 5838 5839 5840 5841 5841 5842 5843 5844 5845 5846 5846 5846 5846 5847 5847 5846 5846 5846
5803 5804 5805 5805 5806 5807 5808 5809 5810 5811 5812 5814 5815 5816 5818 5819 5820 5822 5823 5825 5826 5827 5828 5829 5831 5832 5833 5835 5836 5837 5838 5839 5840 5841 5842 5842 5842 5842 5843 5843 5843 5842 5842
5796 5797 5797 5798 5799 5799 5800 5801 5802 5803 5804 5806 5807 5809 5810 5811 5813 5815 5816 5817 5819 5821 5822 5823 5825 5826 5827 5829 5830 5831 5832 5834 5835 5836 5837 5837 5838 5838 5838 5838 5838 5838 5838
5789 5789 5790 5790 5791 5791 5792 5793 5794 5795 5796 5797 5799 5800 5802 5803 5805 5807 5808 5810 5811 5813 5815 5816 5817 5819 5821 5822 5824 5825 5826 5828 5829 5831 5831 5832 5833 5833 5833 5834 5834 5834 5833
5782 5782 5782 5782 5782 5783 5783 5784 5785 5786 5787 5788 5790 5791 5793 5795 5796 5798 5800 5801 5803 5805 5807 5808 5810 5811 5813 5815 5816 5818 5819 5821 5822 5824 5825 5826 5827 5827 5828 5828 5828 5828 5828
5773 5773 5773 5773 5773 5773 5774 5775 5775 5776 5777 5779 5780 5782 5783 5785 5787 5788 5790 5792 5794 5796 5798 5799 5801 5803 5805 5807 5808 5810 5812 5813 5815 5817 5818 5820 5821 5821 5822 5822 5823 5823 5823
5765 5764 5763 5763 5763 5763 5763 5764 5765 5766 5767 5768 5769 5771 5773 5774 5776 5778 5779 5781 5783 5785 5788 5790 5792 5794 5796 5797 5799 5801 5803 5805 5807 5809 5811 5812 5814 5814 5815 5816 5816 5817 5817
5755 5754 5753 5752 5752 5752 5752 5752 5753 5754 5755 5756 5758 5760 5761 5762 5764 5766 5768 5770 5772 5774 5776 5779 5781 5783 5785 5787 5789 5792 5794 5796 5798 5800 5802 5804 5806 5807 5808 5809 5809 5810 5810
5745 5744 5742 5741 5740 5740 5740 5740 5740 5741 5742 5743 5744 5746 5747 5749 5751 5753 5755 5757 5760 5762 5764 5767 5769 5771 5774 5776 5779 5781 5784 5786 5788 5791 5793 5795 5797 5799 5800 5801 5802 5802 5803
5735 5733 5732 5730 5729 5728 5727 5727 5727 5728 5728 5729 5731 5732 5733 5735 5737 5739 5742 5744 5746 5748 5751 5754 5756 5759 5762 5764 5767 5770 5773 5776 5778 5781 5783 5786 5788 5790 5791 5793 5794 5795 5795
5725 5723 5721 5719 5717 5716 5715 5714 5713 5713 5714 5714 5715 5716 5718 5719 5721 5723 5726 5729 5731 5734 5737 5739 5742 5745 5748 5751 5755 5758 5761 5764 5767 5770 5772 5775 5778 5780 5782 5784 5785 5786 5786
5714 5712 5710 5707 5705 5703 5701 5700 5699 5698 5698 5698 5699 5699 5700 5701 5704 5706 5709 5712 5715 5718 5721 5724 5727 5730 5733 5737 5741 5745 5748 5752 5755 5758 5761 5764 5767 5770 5772 5774 5776 5777 5778
5703 5700 5697 5694 5692 5689 5687 5685 5683 5683 5682 5681 5681 5681 5681 5682 5685 5688 5691 5694 5697 5700 5704 5707 5710 5713 5717 5721 5725 5730 5734 5738 5742 5746 5749 5752 5756 5759 5762 5764 5765 5767 5768
5692 5688 5684 5681 5677 5674 5671 5669 5667 5666 5665 5664 5663 5662 5663 5664 5666 5669 5672 5676 5679 5682 5687 5690 5694 5697 5701 5705 5709 5714 5719 5723 5728 5733 5737 5740 5744 5747 5750 5753 5755 5757 5758
5680 5676 5672 5667 5663 5658 5655 5652 5650 5649 5648 5647 5645 5644 5644 5645 5647 5649 5653 5657 5661 5665 5669 5673 5677 5681 5685 5689 5693 5697 5703 5709 5713 5718 5723 5727 5731 5734 5738 5741 5743 5745 5748
5669 5664 5659 5654 5649 5644 5640 5636 5634 5633 5632 5630 5628 5627 5627 5627 5629 5632 5636 5640 5643 5647 5652 5656 5660 5664 5668 5673 5676 5681 5686 5693 5699 5704 5708 5713 5717 5721 5725 5728 5731 5734 5736
5657 5652 5646 5641 5636 5631 5626 5622 5619 5617 5616 5613 5612 5611 5612 5612 5613 5615 5619 5622 5626 5629 5634 5639 5643 5647 5651 5656 5661 5665 5671 5676 5682 5689 5694 5698 5703 5707 5712 5716 5719 5722 5724
5645 5640 5634 5628 5623 5618 5613 5608 5605 5602 5600 5598 5596 5596 5596 5596 5598 5600 5603 5606 5609 5613 5617 5621 5626 5630 5634 5640 5645 5650 5655 5660 5666 5672 5679 5684 5688 5693 5698 5702 5705 5709 5712
5634 5628 5622 5617 5611 5605 5600 5596 5591 5588 5586 5583 5581 5581 5581 5581 5583 5585 5587 5590 5593 5596 5600 5605 5609 5613 5618 5623 5629 5634 5639 5645 5651 5656 5662 5669 5674 5679 5683 5688 5692 5696 5699